Location: Castelbiague
(43.0361°N, 0.9246°E)
Time: 12:34:39
(UTC+00:00)

Cosmos 1340 - Pass Details

Date: 17 June 2021
Orbit: 498 x 504 km, 81.2° (Epoch: 29 July)

Event Time Altitude Azimuth Distance (km) Brightness Sun altitude
Exits shadow 22:06:33 31° 215° (SW) 910 3.7 -18.8°
Maximum altitude 22:08:08 58° 282° (WNW) 591 3.1 -19.0°
Drops below altitude 10° 22:11:53 10° 2° (N) 1,725 6.3 -19.3°
Sets 22:14:03 0° 7° (N) 2,615 7.3 -19.4°
